SHERK1 LEPA-LEPA

Flight info

Callsign SHERK1
Flight time 0h 58m
Altitude 3000
Route VFR
Aircraft V22/L-SDGRWY/L

Departure

Time 2026-05-07 18:21
Airport Palma de Mallorca Airport (LEPA)

Arrival

Time 2026-05-07 19:19
Airport Palma de Mallorca Airport (LEPA)
Time Latitude Longitude Altitude Speed Heading
2026-05-07 18:19 39.60203 2.70768 157 ft 48 kts 230°
2026-05-07 18:19 39.59817 2.70098 369 ft 128 kts 235°
2026-05-07 18:20 39.59536 2.68944 265 ft 133 kts 277°
2026-05-07 18:20 39.60231 2.70810 157 ft 26 kts 231°
2026-05-07 18:21 39.59964 2.70363 259 ft 99 kts 233°
2026-05-07 18:21 39.59515 2.69386 481 ft 147 kts 252°
2026-05-07 18:21 39.59522 2.67855 701 ft 198 kts 284°
2026-05-07 18:21 39.60134 2.66123 1142 ft 217 kts 311°
2026-05-07 18:22 39.61290 2.64889 1878 ft 231 kts 328°
2026-05-07 18:22 39.62264 2.64127 1775 ft 255 kts 332°
2026-05-07 18:22 39.64474 2.63062 1718 ft 259 kts 358°
2026-05-07 18:22 39.66220 2.63485 1903 ft 255 kts 17°
2026-05-07 18:23 39.67938 2.64101 2217 ft 256 kts 10°
2026-05-07 18:23 39.69646 2.64409 3098 ft 249 kts
2026-05-07 18:23 39.71380 2.64722 3632 ft 257 kts 12°
2026-05-07 18:23 39.73024 2.65717 3736 ft 267 kts 41°
2026-05-07 18:24 39.74099 2.67677 3800 ft 265 kts 69°
2026-05-07 18:24 39.74518 2.69975 3783 ft 265 kts 85°
2026-05-07 18:24 39.74677 2.72335 3766 ft 264 kts 83°
2026-05-07 18:24 39.74989 2.74650 3758 ft 263 kts 74°
2026-05-07 18:25 39.75571 2.76948 3769 ft 264 kts 70°
2026-05-07 18:25 39.76192 2.79205 3758 ft 263 kts 70°
2026-05-07 18:25 39.76879 2.81400 3767 ft 264 kts 63°
2026-05-07 18:25 39.77752 2.83513 3759 ft 264 kts 61°
2026-05-07 18:26 39.78624 2.85586 3762 ft 263 kts 61°
2026-05-07 18:26 39.79509 2.87691 3762 ft 263 kts 61°
2026-05-07 18:26 39.80503 2.89666 3736 ft 264 kts 45°
2026-05-07 18:26 39.82083 2.90866 3774 ft 263 kts 13°
2026-05-07 18:27 39.83899 2.90822 3769 ft 264 kts 342°
2026-05-07 18:27 39.86268 2.90399 3827 ft 265 kts 328°
2026-05-07 18:27 39.87526 2.88673 3695 ft 262 kts 295°
2026-05-07 18:27 39.87894 2.86364 3820 ft 264 kts 269°
2026-05-07 18:28 39.87524 2.84049 3766 ft 263 kts 249°
2026-05-07 18:28 39.86684 2.81903 3777 ft 264 kts 238°
2026-05-07 18:28 39.85639 2.79940 3763 ft 264 kts 234°
2026-05-07 18:28 39.84622 2.78124 3760 ft 263 kts 234°
2026-05-07 18:29 39.83563 2.76232 3762 ft 263 kts 234°
2026-05-07 18:29 39.82477 2.74301 3763 ft 263 kts 232°
2026-05-07 18:29 39.81249 2.72550 3752 ft 263 kts 220°
2026-05-07 18:29 39.79757 2.71140 3780 ft 264 kts 211°
2026-05-07 18:30 39.78200 2.69944 3753 ft 264 kts 210°
2026-05-07 18:30 39.76659 2.68704 3769 ft 263 kts 213°
2026-05-07 18:30 39.75123 2.67392 3757 ft 263 kts 213°
2026-05-07 18:30 39.73577 2.66073 3764 ft 263 kts 213°
2026-05-07 18:31 39.72044 2.64765 3750 ft 264 kts 213°
2026-05-07 18:31 39.70534 2.63491 3458 ft 266 kts 211°
2026-05-07 18:31 39.69020 2.62467 2960 ft 262 kts 205°
2026-05-07 18:31 39.67432 2.61561 2483 ft 259 kts 201°
2026-05-07 18:32 39.65780 2.60559 1969 ft 257 kts 209°
2026-05-07 18:32 39.64241 2.59457 1733 ft 253 kts 209°
2026-05-07 18:32 39.62672 2.58337 1784 ft 255 kts 209°
2026-05-07 18:32 39.61113 2.57223 1757 ft 256 kts 209°
2026-05-07 18:33 39.59580 2.56075 1764 ft 256 kts 215°
2026-05-07 18:33 39.58318 2.54451 1767 ft 256 kts 234°
2026-05-07 18:33 39.57359 2.52497 1772 ft 257 kts 241°
2026-05-07 18:33 39.56599 2.50381 1743 ft 256 kts 255°
2026-05-07 18:34 39.56466 2.48096 1789 ft 256 kts 276°
2026-05-07 18:34 39.56756 2.45828 1766 ft 257 kts 283°
2026-05-07 18:34 39.57192 2.43574 1767 ft 256 kts 284°
2026-05-07 18:34 39.57312 2.41280 1717 ft 256 kts 258°
2026-05-07 18:35 39.56517 2.39256 1793 ft 256 kts 226°
2026-05-07 18:35 39.55008 2.38063 1759 ft 256 kts 194°
2026-05-07 18:35 39.53249 2.38103 1780 ft 256 kts 162°
2026-05-07 18:35 39.51758 2.39363 1768 ft 256 kts 130°
2026-05-07 18:36 39.50983 2.41406 1790 ft 256 kts 103°
2026-05-07 18:36 39.50861 2.43712 1769 ft 257 kts 83°
2026-05-07 18:36 39.51306 2.45933 1773 ft 256 kts 67°
2026-05-07 18:36 39.52192 2.47946 1768 ft 256 kts 54°
2026-05-07 18:37 39.53316 2.49721 1769 ft 256 kts 46°
2026-05-07 18:37 39.54675 2.51224 1762 ft 256 kts 36°
2026-05-07 18:37 39.56190 2.52477 1768 ft 256 kts 31°
2026-05-07 18:37 39.57726 2.53680 1759 ft 256 kts 31°
2026-05-07 18:38 39.59260 2.54881 1762 ft 256 kts 31°
2026-05-07 18:38 39.60753 2.56105 1760 ft 256 kts 37°
2026-05-07 18:38 39.61937 2.57625 1696 ft 237 kts 56°
2026-05-07 18:38 39.62704 2.59537 1787 ft 235 kts 68°
2026-05-07 18:39 39.63255 2.61535 1755 ft 236 kts 72°
2026-05-07 18:39 39.63772 2.63569 1762 ft 236 kts 71°
2026-05-07 18:39 39.64276 2.65614 1759 ft 236 kts 77°
2026-05-07 18:39 39.64210 2.67596 1737 ft 235 kts 111°
2026-05-07 18:40 39.63223 2.69312 1790 ft 236 kts 145°
2026-05-07 18:40 39.61681 2.69993 1767 ft 236 kts 180°
2026-05-07 18:40 39.60128 2.69444 1789 ft 236 kts 211°
2026-05-07 18:40 39.58907 2.68034 1782 ft 236 kts 232°
2026-05-07 18:41 39.57962 2.66274 1767 ft 236 kts 239°
2026-05-07 18:41 39.57115 2.64457 1763 ft 236 kts 239°
2026-05-07 18:41 39.56053 2.62838 1722 ft 236 kts 213°
2026-05-07 18:41 39.54514 2.62217 1792 ft 236 kts 179°
2026-05-07 18:42 39.52957 2.62822 1763 ft 236 kts 144°
2026-05-07 18:42 39.51933 2.64432 1794 ft 236 kts 114°
2026-05-07 18:42 39.51535 2.66504 1633 ft 238 kts 94°
2026-05-07 18:42 39.51747 2.68605 1224 ft 235 kts 72°
2026-05-07 18:43 39.52402 2.70553 868 ft 233 kts 63°
2026-05-07 18:43 39.53180 2.72377 752 ft 230 kts 63°
2026-05-07 18:43 39.53517 2.74403 753 ft 231 kts 95°
2026-05-07 18:43 39.53069 2.76403 799 ft 233 kts 117°
2026-05-07 18:44 39.52256 2.78220 762 ft 233 kts 120°
2026-05-07 18:44 39.51463 2.80046 758 ft 232 kts 119°
2026-05-07 18:44 39.50678 2.81897 762 ft 232 kts 119°
2026-05-07 18:44 39.49889 2.83757 761 ft 232 kts 119°
2026-05-07 18:45 39.49111 2.85594 762 ft 232 kts 119°
2026-05-07 18:45 39.48336 2.87420 762 ft 232 kts 119°
2026-05-07 18:45 39.47551 2.89268 762 ft 232 kts 119°
2026-05-07 18:45 39.46759 2.91134 762 ft 232 kts 119°
2026-05-07 18:46 39.45975 2.92981 762 ft 232 kts 119°
2026-05-07 18:46 39.45194 2.94821 761 ft 232 kts 119°
2026-05-07 18:46 39.44416 2.96652 762 ft 232 kts 119°
2026-05-07 18:46 39.43636 2.98487 761 ft 232 kts 119°
2026-05-07 18:47 39.42851 3.00335 763 ft 238 kts 119°
2026-05-07 18:47 39.42004 3.02326 844 ft 266 kts 118°
2026-05-07 18:47 39.41077 3.04505 780 ft 280 kts 118°
2026-05-07 18:47 39.40102 3.06681 758 ft 277 kts 124°
2026-05-07 18:48 39.38923 3.08625 763 ft 273 kts 130°
2026-05-07 18:48 39.37791 3.10588 739 ft 273 kts 118°
2026-05-07 18:48 39.37182 3.12897 786 ft 272 kts 100°
2026-05-07 18:48 39.37062 3.15357 761 ft 273 kts 87°
2026-05-07 18:49 39.37322 3.17790 768 ft 273 kts 76°
2026-05-07 18:49 39.37863 3.20126 770 ft 273 kts 70°
2026-05-07 18:49 39.38602 3.22376 754 ft 272 kts 62°
2026-05-07 18:49 39.39587 3.24473 773 ft 273 kts 56°
2026-05-07 18:50 39.40517 3.26626 722 ft 273 kts 72°
2026-05-07 18:50 39.40596 3.29052 779 ft 272 kts 103°
2026-05-07 18:50 39.39708 3.31210 761 ft 273 kts 134°
2026-05-07 18:50 39.38067 3.32488 778 ft 272 kts 164°
2026-05-07 18:51 39.36170 3.32680 775 ft 273 kts 186°
2026-05-07 18:51 39.34387 3.31925 751 ft 272 kts 211°
2026-05-07 18:51 39.33002 3.30234 768 ft 273 kts 237°
2026-05-07 18:51 39.32398 3.27886 777 ft 272 kts 265°
2026-05-07 18:52 39.32584 3.25462 783 ft 273 kts 284°
2026-05-07 18:52 39.33164 3.23142 776 ft 273 kts 287°
2026-05-07 18:52 39.33650 3.20736 755 ft 273 kts 279°
2026-05-07 18:52 39.33847 3.18258 771 ft 273 kts 274°
2026-05-07 18:53 39.33981 3.15790 757 ft 272 kts 274°
2026-05-07 18:53 39.34114 3.13335 763 ft 273 kts 274°
2026-05-07 18:53 39.34264 3.10872 765 ft 273 kts 277°
2026-05-07 18:53 39.34643 3.08444 764 ft 273 kts 284°
2026-05-07 18:54 39.35107 3.06045 761 ft 273 kts 285°
2026-05-07 18:54 39.35677 3.03665 762 ft 273 kts 288°
2026-05-07 18:54 39.36270 3.01302 761 ft 272 kts 288°
2026-05-07 18:54 39.36863 2.98941 762 ft 273 kts 288°
2026-05-07 18:55 39.37452 2.96596 762 ft 273 kts 288°
2026-05-07 18:55 39.38007 2.94311 735 ft 253 kts 287°
2026-05-07 18:55 39.38533 2.92237 718 ft 241 kts 293°
2026-05-07 18:55 39.39333 2.90316 776 ft 242 kts 304°
2026-05-07 18:56 39.40403 2.88610 759 ft 242 kts 315°
2026-05-07 18:56 39.41681 2.87133 769 ft 243 kts 321°
2026-05-07 18:56 39.43008 2.85766 759 ft 242 kts 321°
2026-05-07 18:56 39.44331 2.84397 762 ft 242 kts 321°
2026-05-07 18:57 39.45657 2.83024 761 ft 242 kts 321°
2026-05-07 18:57 39.46969 2.81664 770 ft 242 kts 321°
2026-05-07 18:57 39.48331 2.80253 1308 ft 252 kts 321°
2026-05-07 18:57 39.49731 2.78803 1767 ft 262 kts 321°
2026-05-07 18:58 39.51223 2.77256 1758 ft 273 kts 321°
2026-05-07 18:58 39.52684 2.75741 1766 ft 271 kts 321°
2026-05-07 18:58 39.54180 2.74188 1756 ft 271 kts 321°
2026-05-07 18:58 39.55629 2.72685 1763 ft 270 kts 322°
2026-05-07 18:59 39.57221 2.71345 1749 ft 270 kts 335°
2026-05-07 18:59 39.58971 2.70498 1785 ft 270 kts 344°
2026-05-07 18:59 39.60795 2.69828 1752 ft 270 kts 344°
2026-05-07 18:59 39.62591 2.69169 1767 ft 270 kts 345°
2026-05-07 19:00 39.64443 2.68836 1711 ft 270 kts
2026-05-07 19:00 39.66274 2.69422 1826 ft 271 kts 15°
2026-05-07 19:00 39.68125 2.69970 1920 ft 268 kts
2026-05-07 19:00 39.69955 2.70346 2471 ft 269 kts
2026-05-07 19:01 39.71815 2.70711 3021 ft 270 kts
2026-05-07 19:01 39.73669 2.70459 3593 ft 270 kts 338°
2026-05-07 19:01 39.75235 2.69047 3795 ft 280 kts 311°
2026-05-07 19:01 39.76098 2.66919 3770 ft 279 kts 285°
2026-05-07 19:02 39.76277 2.64433 3786 ft 279 kts 267°
2026-05-07 19:02 39.75881 2.62015 3759 ft 278 kts 248°
2026-05-07 19:02 39.75081 2.60046 3777 ft 278 kts 235°
2026-05-07 19:02 39.73713 2.58043 3771 ft 278 kts 222°
2026-05-07 19:03 39.72219 2.56489 3762 ft 278 kts 214°
2026-05-07 19:03 39.70564 2.55379 3380 ft 266 kts 200°
2026-05-07 19:03 39.68821 2.54695 3011 ft 261 kts 194°
2026-05-07 19:03 39.67041 2.54141 2631 ft 259 kts 194°
2026-05-07 19:04 39.65310 2.53573 2261 ft 258 kts 198°
2026-05-07 19:04 39.63628 2.52708 1886 ft 257 kts 204°
2026-05-07 19:04 39.61986 2.51769 1752 ft 254 kts 205°
2026-05-07 19:04 39.60374 2.50821 1770 ft 256 kts 205°
2026-05-07 19:05 39.58777 2.49827 1546 ft 257 kts 210°
2026-05-07 19:05 39.57430 2.48282 1272 ft 254 kts 232°
2026-05-07 19:05 39.56443 2.46421 1053 ft 254 kts 236°
2026-05-07 19:05 39.55275 2.44663 1010 ft 254 kts 222°
2026-05-07 19:06 39.54749 2.44103 819 ft 254 kts 214°
2026-05-07 19:06 39.51648 2.42191 735 ft 250 kts 205°
2026-05-07 19:06 39.50196 2.40934 730 ft 254 kts 229°
2026-05-07 19:07 39.49414 2.38880 783 ft 253 kts 259°
2026-05-07 19:07 39.49348 2.36669 707 ft 230 kts 281°
2026-05-07 19:07 39.49929 2.34837 733 ft 213 kts 302°
2026-05-07 19:07 39.50778 2.33249 774 ft 217 kts 307°
2026-05-07 19:08 39.51936 2.32033 723 ft 217 kts 341°
2026-05-07 19:08 39.53451 2.31983 798 ft 218 kts 18°
2026-05-07 19:08 39.54667 2.33109 765 ft 218 kts 56°
2026-05-07 19:08 39.55212 2.34927 792 ft 218 kts 83°
2026-05-07 19:09 39.54953 2.36863 771 ft 217 kts 114°
2026-05-07 19:09 39.54328 2.38635 772 ft 218 kts 111°
2026-05-07 19:09 39.53870 2.40517 760 ft 217 kts 104°
2026-05-07 19:09 39.53323 2.42362 723 ft 218 kts 128°
2026-05-07 19:10 39.52103 2.43469 805 ft 217 kts 162°
2026-05-07 19:10 39.50590 2.43703 772 ft 218 kts 183°
2026-05-07 19:10 39.49074 2.43431 750 ft 218 kts 199°
2026-05-07 19:10 39.47905 2.42314 1256 ft 213 kts 233°
2026-05-07 19:11 39.47144 2.40625 2111 ft 223 kts 243°
2026-05-07 19:11 39.46493 2.38752 2802 ft 237 kts 246°
2026-05-07 19:11 39.45804 2.36721 2722 ft 243 kts 246°
2026-05-07 19:11 39.45128 2.34728 2791 ft 240 kts 246°
2026-05-07 19:12 39.44446 2.32720 2744 ft 240 kts 246°
2026-05-07 19:12 39.43705 2.30794 2757 ft 239 kts 234°
2026-05-07 19:12 39.42403 2.29479 2756 ft 238 kts 199°
2026-05-07 19:12 39.40777 2.29340 2781 ft 240 kts 166°
2026-05-07 19:13 39.39339 2.30417 2772 ft 239 kts 131°
2026-05-07 19:13 39.38513 2.32316 2774 ft 239 kts 107°
2026-05-07 19:13 39.38196 2.34466 2775 ft 239 kts 95°
2026-05-07 19:13 39.38100 2.36601 2763 ft 239 kts 90°
2026-05-07 19:14 39.38210 2.38747 2753 ft 239 kts 78°
2026-05-07 19:14 39.38658 2.40821 2776 ft 239 kts 71°
2026-05-07 19:14 39.39222 2.42862 2759 ft 239 kts 66°
2026-05-07 19:14 39.40014 2.44774 2758 ft 239 kts 53°
2026-05-07 19:15 39.40997 2.46543 2774 ft 239 kts 58°
2026-05-07 19:15 39.41886 2.48384 2756 ft 239 kts 58°
2026-05-07 19:15 39.42770 2.50216 2764 ft 239 kts 58°
2026-05-07 19:15 39.43629 2.52046 2763 ft 239 kts 58°
2026-05-07 19:16 39.44494 2.53859 2759 ft 238 kts 58°
2026-05-07 19:16 39.45341 2.55636 2739 ft 230 kts 58°
2026-05-07 19:16 39.46148 2.57328 2580 ft 221 kts 58°
2026-05-07 19:16 39.46921 2.58841 2282 ft 217 kts 51°
2026-05-07 19:17 39.47882 2.60402 2033 ft 216 kts 51°
2026-05-07 19:17 39.48821 2.61921 1800 ft 214 kts 51°
2026-05-07 19:17 39.49680 2.63449 1420 ft 211 kts 58°
2026-05-07 19:17 39.50310 2.64961 888 ft 182 kts 66°
2026-05-07 19:18 39.50758 2.66391 691 ft 156 kts 68°
2026-05-07 19:18 39.51278 2.67569 1059 ft 157 kts 58°
2026-05-07 19:18 39.51879 2.68700 1026 ft 158 kts 54°
2026-05-07 19:18 39.52547 2.69878 742 ft 168 kts 54°
2026-05-07 19:19 39.53179 2.71071 326 ft 148 kts 58°
2026-05-07 19:19 39.53531 2.71912 414 ft 76 kts 66°
2026-05-07 19:19 39.53701 2.72278 188 ft 33 kts 56°
2026-05-07 19:19 39.53805 2.72518 311 ft 37 kts 60°
2026-05-07 19:20 39.53959 2.72838 168 ft 49 kts 58°
2026-05-07 19:20 39.54130 2.73203 75 ft 40 kts 59°
2026-05-07 19:20 39.54233 2.73416 53 ft 13 kts 56°
2026-05-07 19:20 39.54269 2.73498 75 ft 22 kts 48°
2026-05-07 19:21 39.54357 2.73666 71 ft 12 kts 56°
2026-05-07 19:21 39.54401 2.73737 34 ft 12 kts 54°
2026-05-07 19:21 39.54472 2.73732 32 ft 10 kts 333°
2026-05-07 19:21 39.54489 2.73720 32 ft 0 kts 330°
2026-05-07 19:22 39.54490 2.73719 32 ft 1 kts 330°
2026-05-07 19:22 39.54526 2.73692 32 ft 10 kts 330°
2026-05-07 19:22 39.54536 2.73593 32 ft 14 kts 240°
2026-05-07 19:22 39.54478 2.73476 32 ft 14 kts 238°
2026-05-07 19:23 39.54424 2.73363 32 ft 14 kts 238°
2026-05-07 19:23 39.54372 2.73251 32 ft 14 kts 239°
2026-05-07 19:23 39.54321 2.73138 32 ft 14 kts 239°
2026-05-07 19:23 39.54270 2.73027 32 ft 14 kts 239°
2026-05-07 19:24 39.54221 2.72916 32 ft 13 kts 252°
2026-05-07 19:24 39.54196 2.72802 32 ft 11 kts 241°
2026-05-07 19:24 39.54180 2.72782 32 ft 0 kts 204°
2026-05-07 19:24 39.54162 2.72791 32 ft 4 kts 150°
2026-05-07 19:25 39.54156 2.72795 32 ft 0 kts 149°